Regional Weather Roundup
Issued by NWS Kansas City/Pleasant Hill, MO

Home | Current Version | Previous Version | Graphics & Text | Print | Product List | Glossary Off
Versions: 1 2 3 4 5 6 7 8 9 10 11 12 13 14 15 16 17 18 19 20 21 22 23 24 25 26 27

000
ASUS43 KEAX 040310
RWREAX

WEATHER ROUNDUP FOR EASTERN KANSAS AND NORTHWEST MISSOURI
NATIONAL WEATHER SERVICE KANSAS CITY/PLEASANT HILL MO
1000 PM CDT TUE MAY 03 2016

KSZ040-057-103>105-MOZ028-029-037-043-040400-
...KANSAS CITY METROPOLITAN AREA...

CITY           SKY/WX    TMP DP  RH WIND       PRES   REMARKS
K.C. INTL      CLEAR     57  42  57 SW5       29.93F
K.C. DOWNTOWN  CLEAR     59  44  57 SW6       29.93S
LEES SUMMIT    CLEAR     60  44  55 SW6       29.94F
OLATHE - IXD   CLEAR     63  46  54 SW3       29.96S
OLATHE - OJC   PTCLDY    59  45  59 W3        29.95S
LAWRENCE       CLEAR     52  49  89 CALM      29.95S

$$

MOZ001>008-011>017-020>025-030>033-038>040-044>046-053-054-040400-
...NORTHERN AND CENTRAL MISSOURI...

CITY           SKY/WX    TMP DP  RH WIND       PRES   REMARKS
ST. JOSEPH     CLEAR     57  45  64 W7        29.91F
MOSBY          CLEAR     54  48  82 CALM      29.92F
WARRENSBURG    MOCLDY    55  43  62 SW5       29.94F
WHITEMAN AFB   PTCLDY    55  45  70 SW8       29.93S
CLINTON        CLEAR     54  46  76 S5        29.96S
SEDALIA        CLEAR     58  43  57 SW7       29.95S
WARSAW         NOT AVBL
CHILLICOTHE      N/A     55  45  68 SW3       29.90F
KIRKSVILLE     MOCLDY    57  41  55 SW6       29.87F

$$

MOZ041-047>049-056>058-063>065-088>090-097-040400-
...EASTERN AND SOUTHERN MISSOURI...

CITY           SKY/WX    TMP DP  RH WIND       PRES   REMARKS
ST. LOUIS INTL PTCLDY    58  43  57 SW7       29.92F
SPIRIT OF STL  PTCLDY    54  47  77 CALM      29.92S
COLUMBIA       CLEAR     55  43  63 SW8       29.92F
JEFFERSON CITY PTCLDY    55  45  68 CALM      29.93S
ROLLA          CLEAR     47  40  76 SW7       29.93F
OSAGE BEACH    CLEAR     52  37  58 CALM      29.96S
SPRINGFIELD    CLEAR     50  42  74 SW7       29.98S
JOPLIN         CLEAR     53  46  77 S6        30.00R
WEST PLAINS    CLEAR     51  40  65 CALM      29.99R

$$

IAZ060-094-KSZ022-034>040-054-083-096-NEZ052-066-093-040400-
...KANSAS...SOUTHEAST NEBRASKA AND IOWA...

CITY           SKY/WX    TMP DP  RH WIND       PRES   REMARKS
TOPEKA         CLEAR     56  49  77 CALM      29.95S
MANHATTAN      CLEAR     57  46  66 W3        29.97R
EMPORIA        CLEAR     58  47  66 W6        29.97R
CHANUTE        PTCLDY    57  48  72 SW7       29.98S
WICHITA        PTCLDY    60  48  64 W7        30.00R
OMAHA          CLEAR     63  43  48 W7        29.86F
LINCOLN        CLEAR     62  44  51 W7        29.93S
FALLS CITY     CLEAR     59  43  55 SW8       29.91S
LAMONI         CLEAR     57  44  62 SW13      29.85F
DES MOINES     PTCLDY    59  43  55 SW10      29.79F

$$





USA.gov is the U.S. government's official web portal to all federal, state and local government web resources and services.